Regional Weather Roundup
Issued by NWS Raleigh/Durham, NC

Home | Current Version | Previous Version | Text Only | Print | Product List | Glossary On
Versions: 1 2 3 4 5 6 7 8 9 10 11 12 13 14 15 16 17 18 19 20 21 22 23 24 25 26 27 28 29 30 31 32 33 34 35 36 37 38 39 40 41 42 43 44 45 46 47 48 49 50
000
ASUS42 KRAH 221210
RWRRAH
NORTH CAROLINA WEATHER ROUNDUP
NATIONAL WEATHER SERVICE RALEIGH NC
700 AM EST SUN JAN 22 2017

NOTE: "FAIR" INDICATES FEW OR NO CLOUDS BELOW 12,000 FEET WITH NO
SIGNIFICANT WEATHER AND/OR OBSTRUCTIONS TO VISIBILITY.

NCZ001-053-055-056-065-067-221300-
WESTERN NORTH CAROLINA

CITY           SKY/WX    TMP DP  RH WIND       PRES   REMARKS
ASHEVILLE      CLOUDY    52  49  89 E6        29.61F
JEFFERSON      FOG       46  46 100 SE7       29.67R VSB 1/4
MORGANTON      CLOUDY    51  51 100 CALM      29.72F
HICKORY        LGT RAIN  52  52 100 E5        29.65F FOG
RUTHERFORDTON  RAIN      53  53 100 CALM      29.70R
MOUNT AIRY     CLOUDY    52  51  94 S3        29.71R
BOONE          RAIN      47  47 100 SE8       29.67S
$$

NCZ021-022-025-041-071-084-088-221300-
CENTRAL NORTH CAROLINA

CITY           SKY/WX    TMP DP  RH WIND       PRES   REMARKS
CHARLOTTE      LGT RAIN  55  53  93 CALM      29.68F VSB 1
GREENSBORO     CLOUDY    51  51 100 S5        29.69R FOG
WINSTON-SALEM  CLOUDY    51  49  92 CALM      29.71R
RALEIGH-DURHAM CLOUDY    53  52  96 W5        29.70R
FORT BRAGG     LGT RAIN  57  57 100 NW6       29.68R
FAYETTEVILLE   CLOUDY    61  58  90 SW7       29.69R
BURLINGTON     CLOUDY    53  52  96 CALM      29.69R
LAURINBURG     LGT RAIN  60  58  92 W8        29.71R
$$

NCZ011-015-027-028-043-044-047-080-103-221300-
NORTHEASTERN NORTH CAROLINA

CITY           SKY/WX    TMP DP  RH WIND       PRES   REMARKS
ROCKY MT-WILSO FOG       53  53 100 NW6       29.67R VSB 1
GREENVILLE     CLOUDY    59  59 100 W3        29.70R FOG
WASHINGTON     CLOUDY    59  59 100 SW6         N/A
ELIZABETH CITY FOG       54  54 100 W5        29.63R VSB 1/2
MANTEO         CLOUDY    57  57 100 W6        29.63S
CAPE HATTERAS  CLOUDY    60  57  89 W13G22    29.66R FOG
$$

NCZ078-087-090-091-093-098-101-221300-
SOUTHEASTERN NORTH CAROLINA

CITY           SKY/WX    TMP DP  RH WIND       PRES   REMARKS
LUMBERTON      LGT RAIN  59  58  96 SW6       29.70R
GOLDSBORO      CLOUDY    60  60 100 SW8       29.66R
KINSTON        CLOUDY    61  59  94 SW8       29.68R
KENANSVILLE    CLOUDY    59  57  94 SW8       29.69R
NEW BERN       CLOUDY    59  57  93 SW6       29.68R
CHERRY POINT   CLOUDY    57  55  93 SW7       29.68R
BEAUFORT       CLOUDY    59  57  93 W9        29.67S
JACKSONVILLE   CLOUDY    59  58  96 W7        29.67S
WILMINGTON     CLOUDY    59  58  96 SW10      29.70R
$$




USA.gov is the U.S. government's official web portal to all federal, state and local government web resources and services.